Lublinek, Polska

21:02 CEST dnia 29-maj-2017 (GMT +0200)
Lublinek

Pogoda Historia dla EPLL - kwiecień, 2017

Change the Weather History Date:

Piątek, kwiecień 21, 2017

  Actual Average Record
Temperature  
Temperatura średnia 37 ° F -  
Temperatura maksymalna 50 ° F - - ()
Temperatura minimalna 24 ° F - - ()
Degree Days  
stopnio-dni grzewczych 28    
Moisture  
Punkt rosy 30 ° F    
Average Humidity 69    
Maximum Humidity 93    
Minimum Humidity 50    
Opady  
Opady 0.00 cali - - ()
Ciśnienie na poziomie morza  
Ciśnienie na poziomie morza 30.19 cali    
Wiatr  
Prędkość wiatru 7 mph ()    
Maksymalna prędkość wiatru 24 mph    
Max Gust Speed 34 mph    
Widzialność 5.6 mil    
Wydarzenia      
T = Trace of Precipitation, MM = Missing Value Source: Averaged Metar Reports

Daily Weather History Graph

Daily Weather History Graph

Search for Another Location

Airport or City:

Trip Planner

Search our weather history database for the weather conditions in past years. The results will help you decide how hot, cold, wet, or windy it might be!

Date:

Astronomia

Apr. 21, 2017 Wschód Zachów
Aktualny czas 05:33 CEST 19:49 CEST
Zmierzch cywilny 04:56 CEST 20:26 CEST
Zmierzch żeglarski 04:11 CEST 21:13 CEST
świt/zmierzch astronomiczny 03:17 CEST 22:07 CEST
Księżyc 03:27 CEST (4/21) 13:27 CEST (4/21)
całkowite oświetlenie 15h 29m
Długość dnia
14h 16m
Zmniejszający się sierp Księżyca, 30% of the Moon is Illuminated
Kwiecień 21
Zmniejszający się sierp Księżyca
Kwiecień 26
Nowy
Maj 3
Pierwsza kwadra
Maj 10
Pełnia Księżyca
Maj 19
Ostatnia kwadra

Hourly Weather History & Observations

czas (CEST) Temp. czynnik chłodzący wiatru Punkt rosy Wilgotność Ciśnienie Widzialność Wind Dir Prędkość wiatru prędkość w porywie Precip Wydarzenia Warunki pogodowe
12:00 AM 28.4 ° F - 23.0 ° F 80% 30.39 cali - PdWs 1.2 mph - N/A   pogodnie
12:30 AM 26.6 ° F - 23.0 ° F 86% 30.39 cali - zmienny 1.2 mph - N/A   pogodnie
1:00 AM 28.4 ° F - 23.0 ° F 80% 30.36 cali 5.6 mi zmienny 1.2 mph - N/A   nie podane
1:30 AM 28.4 ° F - 23.0 ° F 80% 30.36 cali 5.6 mi zmienny 1.2 mph - N/A   nie podane
2:00 AM 28.4 ° F - 23.0 ° F 80% 30.36 cali 5.6 mi zmienny 1.2 mph - N/A   nie podane
2:30 AM 28.4 ° F - 23.0 ° F 80% 30.33 cali 5.6 mi zmienny 1.2 mph - N/A   nie podane
3:00 AM 28.4 ° F - 23.0 ° F 80% 30.33 cali 5.0 mi zmienny 1.2 mph - N/A   nie podane
3:30 AM 28.4 ° F - 23.0 ° F 80% 30.33 cali 4.3 mi zmienny 1.2 mph - N/A   nie podane
4:00 AM 28.4 ° F - 23.0 ° F 80% 30.33 cali 4.3 mi zmienny 1.2 mph - N/A   nie podane
4:30 AM 26.6 ° F - 23.0 ° F 86% 30.33 cali 4.3 mi zmienny 1.2 mph - N/A   nie podane
5:00 AM 26.6 ° F - 23.0 ° F 86% 30.33 cali 3.7 mi zmienny 1.2 mph - N/A   nie podane
5:30 AM 24.8 ° F - 23.0 ° F 93% 30.30 cali 3.7 mi zmienny 1.2 mph - N/A   nie podane
6:00 AM 24.8 ° F - 21.2 ° F 86% 30.30 cali 3.7 mi zmienny 1.2 mph - N/A   nie podane
7:00 AM 28.4 ° F - 26.6 ° F 93% 30.30 cali 4.3 mi PdPdZd 1.2 mph - N/A   nie podane
7:30 AM 32.0 ° F - 28.4 ° F 87% 30.27 cali 4.3 mi PdPdZd 1.2 mph - N/A   nie podane
8:00 AM 39.2 ° F 32.0 ° F 30.2 ° F 70% 30.27 cali - ZdPdZd 11.5 mph - N/A   pogodnie
8:30 AM 39.2 ° F 32.0 ° F 26.6 ° F 61% 30.27 cali - ZdPdZd 11.5 mph - N/A   pogodnie
9:00 AM 39.2 ° F 30.8 ° F 26.6 ° F 61% 30.24 cali - zachodni 15.0 mph - N/A   pogodnie
9:30 AM 41.0 ° F 33.1 ° F 26.6 ° F 57% 30.24 cali 6.2 mi ZdPdZd 15.0 mph - N/A   obłoki zanikające
10:00 AM 42.8 ° F 35.4 ° F 26.6 ° F 53% 30.24 cali 6.2 mi ZdPdZd 15.0 mph - N/A   przewaga chmur
10:30 AM 42.8 ° F 34.8 ° F 26.6 ° F 53% 30.21 cali 6.2 mi ZdPdZd 17.3 mph - N/A   przewaga chmur
11:00 AM 42.8 ° F 34.5 ° F 26.6 ° F 53% 30.21 cali 6.2 mi ZdPdZd 18.4 mph - N/A   przewaga chmur
12:00 PM 46.4 ° F 38.7 ° F 28.4 ° F 50% 30.18 cali 6.2 mi ZdPdZd 20.7 mph - N/A   przewaga chmur
12:30 PM 46.4 ° F 38.7 ° F 28.4 ° F 50% 30.18 cali - ZdPdZd 20.7 mph - N/A   pogodnie
1:00 PM 48.2 ° F - 32.0 ° F 54% 30.18 cali 6.2 mi ZdPdZd 21.9 mph - N/A   przewaga chmur
1:30 PM 48.2 ° F - 32.0 ° F 54% 30.15 cali 6.2 mi ZdPdZd 21.9 mph - N/A   przewaga chmur
2:00 PM 48.2 ° F - 32.0 ° F 54% 30.15 cali 6.2 mi ZdPdZd 24.2 mph - N/A   przewaga chmur
2:30 PM 48.2 ° F - 32.0 ° F 54% 30.12 cali 6.2 mi ZdPdZd 20.7 mph 34.5 mph N/A   przewaga chmur
3:00 PM 48.2 ° F - 32.0 ° F 54% 30.12 cali 6.2 mi ZdPdZd 19.6 mph - N/A   przewaga chmur
3:30 PM 48.2 ° F - 32.0 ° F 54% 30.12 cali 6.2 mi ZdPdZd 18.4 mph - N/A   przewaga chmur
4:00 PM 50.0 ° F - 33.8 ° F 54% 30.09 cali 6.2 mi ZdPdZd 19.6 mph - N/A   przewaga chmur
5:00 PM 50.0 ° F - 37.4 ° F 62% 30.09 cali 6.2 mi zachodni 19.6 mph - N/A   pochmurno
5:30 PM 50.0 ° F - 37.4 ° F 62% 30.06 cali 6.2 mi zachodni 19.6 mph - N/A   przewaga chmur
6:00 PM 48.2 ° F - 37.4 ° F 66% 30.06 cali 6.2 mi ZdPdZd 19.6 mph - N/A   przewaga chmur
6:30 PM 48.2 ° F - 39.2 ° F 71% 30.06 cali 6.2 mi zachodni 18.4 mph - N/A   przewaga chmur
7:00 PM 48.2 ° F - 39.2 ° F 71% 30.04 cali 6.2 mi zachodni 16.1 mph - N/A   pochmurno
7:30 PM 48.2 ° F - 39.2 ° F 71% 30.04 cali 6.2 mi ZdPdZd 12.7 mph - N/A   przewaga chmur
8:00 PM 48.2 ° F - 39.2 ° F 71% 30.04 cali 6.2 mi PdZd 10.4 mph - N/A   obłoki zanikające
8:30 PM 48.2 ° F - 39.2 ° F 71% 30.01 cali 6.2 mi PdZd 10.4 mph - N/A   obłoki zanikające
9:00 PM 48.2 ° F - 39.2 ° F 71% 30.01 cali 6.2 mi PdZd 9.2 mph - N/A   przewaga chmur
10:00 PM 48.2 ° F - 39.2 ° F 71% 29.98 cali 6.2 mi PdZd 10.4 mph - N/A   niewielkie zachmurzenie
10:30 PM 48.2 ° F - 39.2 ° F 71% 29.98 cali - PdZd 10.4 mph - N/A   pogodnie
11:00 PM 48.2 ° F - 39.2 ° F 71% 29.95 cali - PdZd 11.5 mph - N/A   pogodnie
11:30 PM 48.2 ° F - 37.4 ° F 66% 29.95 cali - PdZd 15.0 mph - N/A   pogodnie